{"data":{"norad_id":61889,"epoch":"2026-09-21T01:48:09.845280Z","epoch_age_seconds":138493,"freshness":"FRESH","line1":"1 61889U 24204R   26264.07511395  .00001117  00000+0  44190-4 0  9996","line2":"2 61889  53.1615 295.1580 0001215  88.1278 271.9863 15.34389057105072","mean_motion":15.34389057,"eccentricity":0.0001215,"inclination_deg":53.1615,"raan_deg":295.158,"arg_perigee_deg":88.1278,"mean_anomaly_deg":271.9863,"bstar":4.419e-5,"rev_number":10507,"period_min":93.848427387475,"perigee_km":461.90459926156,"apogee_km":463.56693134353,"semimajor_km":6840.8727653025,"source":"CELESTRAK","updated_at":"2026-09-22T09:00:49.447630Z"}}